{"data":{"norad_id":58369,"intl_designator":"2023-177U","name":"STARLINK-30870","alt_names":[],"object_type":"PAYLOAD","status":"ACTIVE","operator":null,"country":"US","launch_date":"2023-11-18","launch_site_code":"AFETR","launch_vehicle":null,"mission":null,"orbit_class":"UNKNOWN","rcs_meters":null,"size_class":null,"mass_kg":null,"dimensions":null,"purposes":["comms"],"wikipedia_slug":null,"has_3d_model":false,"image_url":null,"decayed_at":null,"tle_current":{"epoch":"2026-09-20T11:20:34.973664Z","epoch_age_seconds":146056,"freshness":"FRESH","line1":"1 58369U 23177U   26263.47262701  .00000810  00000+0  38970-4 0  9998","line2":"2 58369  43.0026 330.8536 0001105 268.7580  91.3145 15.27581655158012","mean_motion":15.27581655,"eccentricity":0.0001105,"inclination_deg":43.0026,"raan_deg":330.8536,"arg_perigee_deg":268.758,"mean_anomaly_deg":91.3145,"bstar":3.897e-5,"rev_number":15801,"period_min":94.266646583943,"perigee_km":482.28597986273,"apogee_km":483.80230089475,"semimajor_km":6861.1811403787,"source":"CELESTRAK","updated_at":"2026-09-21T09:00:33.863394Z"}}}